Вернуться в каталог

STARLINK-35559

АктивенСвязьVLEO
NORAD 66095·PAYLOAD·🇺🇸 United States

Запущен Oct 19, 2025 с Vandenberg Space Force Base

Loading…

Ближайшие Пролёты (ближайшие 24 часа)

TLE

СвежийSource: CelesTrak SupGP

Эпоха: Sep 14, 2026, 21:05 UTC

1 66095C 25236K   26257.87895833  .00002958  00000+0  87408-4 0  2578
2 66095  53.1586 304.1195 0001127  82.9899 299.0841 15.34386377    16

Отслеживайте STARLINK-35559 в реальном времени с AllMySat

Download on the App Store